Overview Statistics Trail Chart Weather Telemetry Raw packets
 

This is the latest recevied weather packets stored in our database for station/object WX0ABE-13. If no packets are shown the sender has not sent any weather packets the latest 10 day(s).

<< 111 112 113 114 >>
Time Temp. Humidity Pressure Rain* Wind** Luminosity Snow
1787526895 34.44° C 36% 1015 hPa 0 mm - 255 W/m² -
1787526589 33.89° C 34% 1014.9 hPa 0 mm - 222 W/m² -
1787526286 33.89° C 36% 1014.9 hPa 0 mm - 237 W/m² -
1787525983 33.89° C 35% 1015.2 hPa 0 mm - 221 W/m² -
1787525679 33.89° C 37% 1015 hPa 0 mm - 247 W/m² -
1787525378 33.89° C 36% 1015.2 hPa 0 mm - 148 W/m² -
1787525075 33.89° C 35% 1015.2 hPa 0 mm - 134 W/m² -
1787524774 35° C 34% 1014.9 hPa 0 mm - 117 W/m² -
1787524470 35.56° C 32% 1015 hPa 0 mm - 209 W/m² -
1787524165 35° C 34% 1015 hPa 0 mm - 260 W/m² -
1787523861 35° C 33% 1015.4 hPa 0 mm - 254 W/m² -
1787523561 34.44° C 36% 1015.2 hPa 0 mm - 262 W/m² -
1787523256 35° C 36% 1015.4 hPa 0 mm - 468 W/m² -
1787522952 35° C 34% 1015.2 hPa 0 mm - 437 W/m² -
1787522648 35° C 34% 1015.4 hPa 0 mm - 400 W/m² -
1787522348 35° C 34% 1015.2 hPa 0 mm - 510 W/m² -
1787522043 34.44° C 35% 1015.3 hPa 0 mm - 528 W/m² -
1787521742 34.44° C 35% 1015.4 hPa 0 mm - 185 W/m² -
1787521437 34.44° C 34% 1015.4 hPa 0 mm - 441 W/m² -
1787521136 34.44° C 34% 1015.4 hPa 0 mm - 525 W/m² -
1787520832 35.56° C 33% 1015.5 hPa 0 mm - 543 W/m² -
1787520527 35° C 34% 1015.6 hPa 0 mm - 548 W/m² -

* Rain latest hour (hover to see other rain measurements)
** Current wind speed in m/s (hover to see current wind gust speed)